This is the latest recevied weather packets stored in our database for station/object KH6DH-13. If no packets are shown the sender has not sent any weather packets the latest 10 day(s).
| Time | Temp. | Humidity | Pressure | Rain* | Wind** | Luminosity | Snow |
|---|---|---|---|---|---|---|---|
| 1788140603 | 30° C | - | - | 0 mm | 2.24 m/s, 118° | - | - |
| 1788140002 | 30° C | - | - | 0 mm | 1.34 m/s, 37° | - | - |
| 1788139401 | 30.56° C | - | - | 0 mm | 1.34 m/s, 58° | - | - |
| 1788138800 | 30° C | - | - | 0 mm | 0.45 m/s, 97° | - | - |
| 1788138199 | 30.56° C | - | - | 0 mm | 3.13 m/s, 31° | - | - |
| 1788137598 | 30.56° C | - | - | 0 mm | 4.02 m/s, 238° | - | - |
| 1788136997 | 30° C | - | - | 0 mm | 1.79 m/s, 270° | - | - |
| 1788136396 | 29.44° C | - | - | 0 mm | 3.13 m/s, 46° | - | - |
| 1788135795 | 30° C | - | - | 0 mm | 2.68 m/s, 142° | - | - |
| 1788135194 | 29.44° C | - | - | 0 mm | 3.13 m/s, 117° | - | - |
| 1788134593 | 29.44° C | - | - | 0 mm | 2.24 m/s, 3° | - | - |
| 1788133992 | 29.44° C | - | - | 0 mm | 3.13 m/s, 79° | - | - |
| 1788133391 | 29.44° C | - | - | 0 mm | 2.24 m/s, 79° | - | - |
| 1788132790 | 29.44° C | - | - | 0 mm | 3.13 m/s, 65° | - | - |
| 1788132189 | 29.44° C | - | - | 0 mm | 1.79 m/s, 79° | - | - |
| 1788131588 | 29.44° C | - | - | 0 mm | 2.68 m/s, 42° | - | - |
| 1788130987 | 28.89° C | - | - | 0 mm | 2.24 m/s, 359° | - | - |
| 1788130386 | 29.44° C | - | - | 0 mm | 2.68 m/s, 76° | - | - |
| 1788129785 | 28.89° C | - | - | 0 mm | 0 m/s | - | - |
| 1788129228 | 28.89° C | - | - | 0 mm | 2.68 m/s, 49° | - | - |
| 1788129184 | 28.89° C | - | - | 0 mm | 2.68 m/s, 49° | - | - |
| 1788128583 | 27.78° C | - | - | 0 mm | 0.89 m/s, 56° | - | - |
| 1788127981 | 28.33° C | - | - | 0 mm | 1.34 m/s, 42° | - | - |
| 1788127380 | 28.33° C | - | - | 0 mm | 1.34 m/s, 108° | - | - |
| 1788126779 | 27.78° C | - | - | 0 mm | 0.45 m/s, 152° | - | - |
* Rain latest hour (hover to see other rain measurements)
** Current wind speed in m/s (hover to see current wind gust speed)